Regional Weather Roundup
Issued by NWS

Home | Current Version | Previous Version | Text Only | Print | Product List | Glossary Off
Versions: 1 2 3 4 5 6 7 8 9 10 11 12 13 14 15 16 17 18 19 20 21 22 23 24 25 26 27 28 29 30 31 32 33 34 35 36 37 38 39 40 41 42 43 44 45 46 47 48 49 50

000
ASUS43 KLOT 290609
RWRIL

ILLINOIS REGIONAL WEATHER ROUNDUP
NATIONAL WEATHER SERVICE CHICAGO/ROMEOVILLE IL
100 AM CDT MON AUG 29 2016

NOTE: "FAIR" INDICATES FEW OR NO CLOUDS BELOW 12,000 FEET WITH NO
SIGNIFICANT WEATHER AND/OR OBSTRUCTIONS TO VISIBILITY.

* THESE STATIONS ARE NOT UNDER NWS QUALITY CONTROL. THEY ALSO MAY NOT
  REPORT WEATHER SUCH AS PRECIPITATION OR FOG.

ILZ001-002-007-009-015-016-024-290700-
NORTHWEST ILLINOIS

CITY           SKY/WX    TMP DP  RH WIND       PRES   REMARKS
MOLINE         FAIR      72  68  87 E7        30.19R
6HR MIN TEMP:  72; 6HR MAX TEMP:  75; 6HR PCP: TRACE;

STERLING*      FAIR      70  69  97 E5        30.21F
SAVANNA*       FAIR      71  69  94 S3        30.20R
$$

ILZ003-004-008-010-011-017-018-290700-
NORTH CENTRAL ILLINOIS

CITY           SKY/WX    TMP DP  RH WIND       PRES   REMARKS
ROCKFORD       FAIR      71  68  90 SE6       30.23S
6HR MIN TEMP:  71; 6HR MAX TEMP:  77;

FREEPORT*      FAIR      67  66  96 E3        30.23F
ROCHELLE*      FAIR      68  68  98 SE3       30.23R FOG
DE KALB*       FAIR      69  69  97 SE6       30.23F
$$

ILZ005-006-012>014-019>023-290700-
NORTHEAST ILLINOIS

CITY           SKY/WX    TMP DP  RH WIND       PRES   REMARKS
CHICAGO-OHARE  MOCLDY    73  68  84 E5        30.22S
6HR MIN TEMP:  72; 6HR MAX TEMP:  75;

CHICAGO-MIDWAY MOCLDY    75  67  76 CALM      30.22F
6HR MIN TEMP:  74; 6HR MAX TEMP:  77;

AURORA         FAIR      70  67  90 N6        30.22F
6HR MIN TEMP:  70; 6HR MAX TEMP:  77;

LANSING*       FAIR      71  70  98 E3        30.22F
JOLIET*        FAIR      71  71  98 CALM      30.21F FOG
WAUKEGAN       FAIR      69  68  96 CALM      30.22F
6HR MIN TEMP:  66; 6HR MAX TEMP:  72;

DUPAGE AIRPORT FAIR      70  67  90 CALM      30.22F
6HR MIN TEMP:  69; 6HR MAX TEMP:  78;

KANKAKEE*      CLEAR     70  69  97 CALM      30.21F
WHEELING       FAIR      71  68  90 CALM      30.23S
6HR MIN TEMP:  71; 6HR MAX TEMP:  74;

MORRIS*        FAIR      68  67  97 CALM      30.20F FOG
ROMEOVILLE*    FAIR      70  70 100 E6        30.22S
$$

LMZ740>746-290700-
SOUTHERN LAKE MICHIGAN

STATION/POSITION SKY/WX   TEMP    WIND        PRES    VSBY  WAVE
                          AIR SEA DIR/SP/G                  HT/PER
                          (F)     (DEG/KT/KT) (MB)    (MI)  (FT/S)
SOUTHERN BUOY              73 75   60/  6/  6 1023.0F         1
WILMETTE HARBOR            74 73  130/  4/  6   N/A           1/ 3
HARRISON CRIB              75      90/  7/  7   N/A
BURNHAM HARBOR             71      CALM  /  3   N/A
CALUMET HARBOR             72      20/  3/  4 1023.1R
BURNS HARBOR               72      80/  5/  9 1023.7S
MICHIGAN CITY              71      30/  7/  7   N/A
MICHIGAN CITY 6N           74 76  100/  4/  6   N/A           2/ 4
ST. JOSEPH                 72 74   70/  4/  6 1023.1F         1/ 3
$$

ILZ025>027-034>036-040-047-049-050-058-095>099-290700-
WEST-CENTRAL ILLINOIS

CITY           SKY/WX    TMP DP  RH WIND       PRES   REMARKS
QUINCY         PTCLDY    73  72  96 E6        30.16F
GALESBURG*     MOCLDY    70  67  92 CALM      30.19S
MACOMB*        CLEAR     69  68  99 E3        30.20S
JACKSONVILLE*  CLEAR     71  70  96 NE5       30.17R
PITTSFIELD*    CLEAR     73  72  98 CALM      30.17F
$$

ILZ028>032-037-038-041>044-048-051>054-059>061-290700-
CENTRAL ILLINOIS

CITY           SKY/WX    TMP DP  RH WIND       PRES   REMARKS
PONTIAC        CLEAR     71  71 100 E3        30.20F
BLOOMINGTON    CLEAR     70  69  97 E6        30.21
DECATUR        CLEAR     73  70  90 NE3       30.18F
PEORIA         CLEAR     72  71  97 E8        30.18F
6HR MIN TEMP:  71; 6HR MAX TEMP:  76;

LACON*         CLEAR     67  67  97 CALM      30.19S FOG
LINCOLN*       CLEAR     72  72  98 CALM      30.18F
SPRINGFIELD    CLEAR     74  72  93 E5        30.18R
6HR MIN TEMP:  74; 6HR MAX TEMP:  81;

TAYLORVILLE    CLEAR     73  72  96 CALM      30.16F
6HR MIN TEMP:  73; 6HR MAX TEMP:  83;

$$

ILZ033-039-045-046-055>057-062-063-290700-
EAST-CENTRAL ILLINOIS

CITY           SKY/WX    TMP DP  RH WIND       PRES   REMARKS
CHAMPAIGN      PTCLDY    73  70  90 NE8       30.19F
RANTOUL*       PTCLDY    73  71  91 E3        30.20F
MATTOON        CLEAR     73  68  84 S5        30.16F
PARIS*         MOCLDY    72  71  96 CALM      30.17F
$$

ILZ079-100>102-290700-
SOUTHWEST ILLINOIS

CITY           SKY/WX    TMP DP  RH WIND       PRES   REMARKS
ALTON          CLEAR     74  72  93 E5        30.16S
BELLEVILLE     CLEAR     76  76  99 N3        30.14S
CAHOKIA*       CLEAR     76  72  87 CALM      30.14F
SPARTA*        CLEAR     74  73  95 CALM      30.16S
$$

ILZ064>066-069>071-074>076-080>082-084>086-088>090-092>094-290700-
SOUTH-CENTRAL ILLINOIS

CITY           SKY/WX    TMP DP  RH WIND       PRES   REMARKS
CARBONDALE     CLEAR     74  73  97 CALM      30.14S FOG
6HR MIN TEMP:  74; 6HR MAX TEMP:  85;

CAIRO*         CLEAR     73  73 100 N3        30.11F
EFFINGHAM*     CLEAR     73  72  96 NE3       30.18F
MARION         CLEAR     75  73  94 CALM      30.14F FOG
MT. VERNON     CLEAR     75  66  73 NE5       30.16S
CENTRALIA*     CLEAR     74  71  91 E6        30.15S
SALEM*         CLEAR     76  69  80 E5        30.16F
METROPOLIS*    CLEAR     75  73  95 CALM      30.13S
$$

ILZ067-068-072-073-078-083-087-091-290700-
SOUTHEAST ILLINOIS

CITY           SKY/WX    TMP DP  RH WIND       PRES   REMARKS
LAWRENCEVILLE  MOCLDY    71  70  96 CALM      30.16F
FLORA*         PTCLDY    73  71  92 CALM      30.16F
FAIRFIELD*     CLEAR     74  70  88 CALM      30.14F
HARRISBURG*    CLEAR     77  75  94 N3        30.14S
ROBINSON*      CLOUDY    70  69  97 CALM      30.15F
CARMI*         CLEAR     74  73  95 CALM      30.13F
$$

ABBREVIATIONS USED IN REMARKS
   TC - TEMPERATURE IN CELSIUS
  WCI - WIND CHILL INDEX
   HX - HEAT INDEX
  VSB - VISIBILITY
$$




USA.gov is the U.S. government's official web portal to all federal, state and local government web resources and services.